User: anonymous   Login
Location: Bonningues
(50.7927°N, 2.0150°E)
Time: 07:16:19
(UTC+00:00)
Language:

Cosmos 1242 Rocket - Orbit

View from above orbital plane
View from above orbital plane
View from above satellite
View from above satellite

Ground track
Ground track

The orbit data is extracted from the following two-line orbital elements,

1 12155U 81008B   20296.18818150  .00001565  00000-0  47565-4 0  9990
2 12155  81.1637  48.6611 0029199 113.8993 246.5308 15.32950691179705
Epoch (UTC): 22 October 2020 04:30:58
Eccentricity: 0.0029199
inclination: 81.1637°
perigee height: 447 km
apogee height: 487 km
right ascension of ascending node: 48.6611°
argument of perigee: 113.8993°
revolutions per day: 15.32950691
mean anomaly at epoch: 246.5308°
orbit number at epoch: 17970

The dashed part of the orbit path shows where the satellite is in the earth's shadow,  

DLR